Weather History for Challis, ID

Change the Weather History Date:

Monday, August 26, 2013

  Actual Average Record
Temperature  
Mean Temperature 67 °F 63 °F  
Max Temperature 86 °F 82 °F 97 °F (1988)
Min Temperature 47 °F 45 °F 33 °F (1992)
Degree Days  
Heating Degree Days 0 3  
Month to date heating degree days 6 33  
Since 1 June heating degree days 127 219  
Since 1 July heating degree days 6 54  
Cooling Degree Days 2 1  
Month to date cooling degree days 103 80  
Year to date cooling degree days 369 236  
Since 1 June cooling degree days 367 234  
Growing Degree Days 18 (Base 50)    
Moisture  
Dew Point 39 °F    
Average Humidity 43    
Maximum Humidity 71    
Minimum Humidity 14    
Precipitation  
Precipitation 0.00 in 0.03 in 0.23 in (1990)
Month to date precipitation 0.21 0.65  
Year to date precipitation 2.49 7.25  
Sea Level Pressure  
Sea Level Pressure 29.90 in    
Wind  
Wind Speed 5 mph (South)    
Max Wind Speed 21 mph    
Max Gust Speed 26 mph    
Visibility 10 miles    
Events      
T = Trace of Precipitation, MM = Missing Value Source: NWS Daily Summary

Daily Weather History Graph

Daily Weather History Graph

Search for Another Location

Airport:

Trip Planner

Search our weather history database for the weather conditions in past years. The results will help you decide how hot, cold, wet, or windy it might be!

Date:

Astronomy

Aug. 26, 2013 Rise Set
Actual Time 6:52 AM MDT 8:23 PM MDT
Civil Twilight 6:22 AM MDT 8:53 PM MDT
Nautical Twilight 5:45 AM MDT 9:30 PM MDT
Astronomical Twilight 5:05 AM MDT 10:09 PM MDT
Moon 11:19 PM MDT (8/26) 1:14 PM MDT (8/26)
Length of Visible Light 14h 31m
Length of Day
13h 30m
Waning Gibbous, 66% of the Moon is Illuminated
Aug 26
Waning Gibbous
Aug 28
Last Quarter
Sep 5
New
Sep 12
First Quarter
Sep 19
Full

Hourly Weather History & Observations

Time (MDT) Temp. Dew Point Humidity Pressure Visibility Wind Dir Wind Speed Gust Speed Precip Events Conditions
12:55 AM 62.1 °F 45.0 °F 53% 29.90 in 10.0 mi Calm Calm - N/A   Scattered Clouds
1:55 AM 57.0 °F 44.1 °F 62% 29.90 in 10.0 mi North 3.5 mph - N/A   Clear
2:55 AM 55.9 °F 43.0 °F 62% 29.93 in 10.0 mi Calm Calm - N/A   Clear
3:55 AM 55.0 °F 43.0 °F 64% 29.90 in 10.0 mi Calm Calm - N/A   Clear
4:55 AM 51.1 °F 42.1 °F 71% 29.93 in 10.0 mi Calm Calm - N/A   Clear
5:55 AM 52.0 °F 42.1 °F 69% 29.95 in 10.0 mi Calm Calm - N/A   Clear
6:55 AM 51.1 °F 42.1 °F 71% 29.99 in 10.0 mi Calm Calm - N/A   Clear
7:55 AM 54.0 °F 43.0 °F 66% 29.99 in 10.0 mi Calm Calm - N/A   Clear
8:55 AM 57.9 °F 43.0 °F 58% 29.99 in 10.0 mi Calm Calm - N/A   Clear
9:55 AM 62.1 °F 43.0 °F 50% 29.99 in 10.0 mi Calm Calm - N/A   Clear
10:55 AM 68.0 °F 44.1 °F 42% 29.96 in 10.0 mi North 3.5 mph - N/A   Clear
11:55 AM 72.0 °F 43.0 °F 35% 29.92 in 10.0 mi NNE 3.5 mph - N/A   Clear
12:55 PM 79.0 °F 46.0 °F 31% 29.87 in 10.0 mi North 6.9 mph - N/A   Scattered Clouds
1:55 PM 82.0 °F 37.0 °F 20% 29.84 in 10.0 mi Calm Calm - N/A   Clear
2:55 PM 84.0 °F 33.1 °F 16% 29.83 in 10.0 mi South 11.5 mph 17.3 mph N/A   Clear
3:55 PM 84.9 °F 32.0 °F 15% 29.81 in 10.0 mi South 16.1 mph 21.9 mph N/A   Scattered Clouds
4:55 PM 84.0 °F 30.9 °F 15% 29.82 in 10.0 mi South 12.7 mph 19.6 mph N/A   Partly Cloudy
5:55 PM 82.9 °F 30.0 °F 15% 29.82 in 10.0 mi South 18.4 mph 25.3 mph N/A   Clear
6:55 PM 82.0 °F 32.0 °F 16% 29.84 in 10.0 mi South 10.4 mph - N/A   Partly Cloudy
7:55 PM 80.1 °F 27.0 °F 14% 29.85 in 8.0 mi SW 6.9 mph 18.4 mph N/A   Partly Cloudy
8:55 PM 75.9 °F 34.0 °F 22% 29.87 in 10.0 mi South 6.9 mph - N/A   Partly Cloudy
10:55 PM 64.9 °F 37.0 °F 36% 29.90 in 9.0 mi NNW 6.9 mph - N/A   Clear
11:55 PM 64.9 °F 35.1 °F 33% 29.91 in 9.0 mi Variable 3.5 mph - N/A   Clear